[[{"header":{"parameterUnit":"m.s-1","parameterCategory":1,"la1":30.2991,"la2":30.254,"lo1":-89.0895,"lo2":-89.0444,"dy":0.0017,"dx":0.0017,"nx":28,"ny":28,"refTime":"2025-07-27T21:00:00:Z","depth":0,"parameterNumber":2,"parameterNumberName":"U-component_of_WINDS"},"data":[0,0,0,0,0,0,0,0,0,0,0,0,0,0,0,0,0,0,0,0,0,0,0,0,0,0,0,0,0,0,0,0,0,0,0,0,0,0,0,0,0,0,0,0,0,0,0,0,0,0,0,0,0,0,0,0,0,0,1.5368,1.5369,0,1.5535,1.5537,1.5539,1.5601,1.56,1.56,1.5599,1.577,1.5775,1.578,0,0,0,0,0,0,0,0,0,0,0,0,0,1.5101,1.5105,1.5368,1.537,1.5372,1.5535,1.5537,1.5539,1.5601,1.56,1.56,1.5599,1.5768,1.5774,1.578,0,0,0,0,0,0,0,0,0,0,0,0,0,1.5237,1.5107,1.5367,1.5422,1.5429,1.5534,1.5537,1.554,1.5601,1.56,1.5599,1.5599,1.5766,1.5774,1.5781,1.5844,0,0,1.5804,1.5808,0,0,0,0,0,0,0,0,1.5229,1.5247,1.5412,1.5419,1.5426,1.5546,1.5506,1.5642,1.5601,1.5536,1.5599,1.5598,1.5696,1.5709,1.5743,1.5852,1.5859,1.5805,1.581,1.5813,1.5815,0,0,0,0,0,0,0,1.522,1.524,1.5434,1.5414,1.5423,1.5438,1.5457,1.5532,1.5618,1.5541,1.5546,1.5565,1.57,1.5735,1.5747,1.5862,1.5805,1.5812,1.5816,1.5819,1.6031,1.6032,0,0,0,0,0,0,1.5201,1.5232,1.5428,1.5439,1.5324,1.5444,1.5464,1.5508,1.5618,1.5634,1.5566,1.5567,1.5723,1.5738,1.5753,1.5834,1.5813,1.582,1.5824,1.603,1.6031,1.6032,0,0,0,0,0,0,1.5195,1.5218,1.5422,1.5337,1.5364,1.5449,1.5498,1.5512,1.5548,1.5636,1.5652,1.5586,1.5723,1.5743,1.5821,1.5841,1.5823,1.583,1.6029,1.603,1.6032,1.5995,0,0,0,0,0,0,1.5187,1.5216,1.5241,1.5337,1.5368,1.5487,1.5499,1.5516,1.556,1.5564,1.5659,1.5674,1.5723,1.5809,1.5828,1.5851,1.5836,1.6027,1.6029,1.6031,1.5995,1.5995,1.5995,0,0,0,0,0,1.5178,1.5224,1.5242,1.5265,1.5401,1.5488,1.5505,1.5561,1.5562,1.5587,1.5644,1.5671,1.5835,1.5817,1.5839,1.5864,1.6026,1.6029,1.6031,1.5995,1.5995,1.5995,0,0,0,0,0,0,1.5127,1.5237,1.5258,1.5337,1.5402,1.5498,1.5532,1.556,1.5627,1.5628,1.5694,1.5715,1.5788,1.5834,1.5811,1.593,1.5933,1.5939,1.5897,1.5898,1.5899,1.5886,1.5842,0,0,0,0,0,1.5125,1.5187,1.5279,1.534,1.5371,1.5446,1.5486,1.5523,1.5594,1.5622,1.5684,1.5752,1.5819,1.5861,1.5928,1.6002,1.6023,1.603,1.603,1.603,1.6035,1.6077,1.6081,1.604,1.604,1.604,0,0,1.5122,1.5189,1.5224,1.5331,1.5386,1.5448,1.5469,1.5533,1.558,1.5632,1.5709,1.5757,1.5837,1.5913,1.595,1.5954,1.6051,1.6033,1.6032,1.6038,1.608,1.6084,1.6087,1.6042,1.6042,1.6041,0,0,1.5147,1.5204,1.5261,1.5316,1.5399,1.5448,1.5462,1.5553,1.5587,1.5666,1.5706,1.5762,1.5876,1.5931,1.5974,1.6019,1.6046,1.6039,1.6041,1.6081,1.6084,1.6087,1.6103,1.6108,1.6044,1.6044,1.6044,0,1.5132,1.5227,1.5286,1.5349,1.5394,1.5444,1.5502,1.5552,1.5652,1.5683,1.5685,1.5829,1.5886,1.5976,1.5987,1.602,1.6037,1.6029,1.6079,1.6083,1.6087,1.6102,1.6108,1.6043,1.6043,1.6043,1.6043,0,1.5204,1.5269,1.5305,1.5401,1.5451,1.551,1.5578,1.5621,1.5654,1.5703,1.5782,1.5853,1.5934,1.5958,1.5991,1.6053,1.6052,1.6066,1.607,1.6088,1.6104,1.6111,1.604,1.6041,1.6041,1.6042,0,0,1.5202,1.533,1.5342,1.5386,1.5482,1.5533,1.5595,1.5674,1.571,1.5777,1.583,1.5925,1.5939,1.5987,1.6027,1.6062,1.6093,1.6072,1.6075,1.6073,1.6165,1.6153,1.616,1.6112,1.6114,1.6115,1.6158,0,1.5239,1.5352,1.5407,1.5495,1.5556,1.5604,1.5658,1.5722,1.5769,1.5827,1.5879,1.5945,1.5958,1.5988,1.6025,1.6082,1.6113,1.6079,1.6162,1.6164,1.614,1.6168,1.6156,1.6194,1.6165,1.6166,1.6167,0,1.5297,1.5365,1.5459,1.5548,1.5575,1.5623,1.57,1.5755,1.5829,1.5861,1.5914,1.5953,1.6019,1.6018,1.6111,1.6087,1.6124,1.6156,1.6159,1.6169,1.6166,1.6178,1.6207,1.6213,1.6177,1.6176,1.6176,0,1.5285,1.54,1.5472,1.5508,1.5613,1.5645,1.569,1.5763,1.5807,1.5875,1.5904,1.5978,1.6019,1.6075,1.6132,1.6127,1.6219,1.6223,1.6247,1.6245,1.6264,1.6262,1.6299,1.6288,1.6288,1.6288,1.6288,0,1.5321,1.5377,1.5468,1.5511,1.5575,1.5638,1.5699,1.5748,1.5812,1.5866,1.5913,1.5962,1.6035,1.6094,1.6139,1.6208,1.6226,1.6253,1.6264,1.6249,1.6245,1.6274,1.6272,1.6289,1.6289,1.6289,1.6288,0,1.5318,1.5382,1.5462,1.5555,1.558,1.5623,1.5702,1.5746,1.5796,1.5863,1.5883,1.596,1.6031,1.6094,1.6189,1.6219,1.629,1.6304,1.6265,1.6271,1.6291,1.6288,1.6347,1.6358,1.634,1.634,1.634,0,1.5337,1.5381,1.5479,1.5518,1.5563,1.5626,1.5671,1.5734,1.578,1.5867,1.59,1.5975,1.6038,1.615,1.6214,1.6286,1.6302,1.6318,1.6314,1.6296,1.6302,1.6299,1.6303,1.6318,1.6318,1.6318,1.6318,0,1.5362,1.5391,1.5455,1.553,1.5583,1.5645,1.5708,1.5738,1.5813,1.5861,1.5935,1.5984,1.608,1.6153,1.6233,1.6279,1.6311,1.6319,1.6328,1.6312,1.6287,1.6301,1.6263,1.6317,1.6317,1.6317,1.6317,1.6317,1.5371,1.5412,1.5487,1.5557,1.5611,1.5669,1.5715,1.577,1.5833,1.5916,1.595,1.6024,1.6097,1.6207,1.6253,1.6312,1.6318,1.6331,1.6335,1.6337,1.6334,1.6278,1.6327,1.6327,1.6327,1.6327,1.6327,0,1.5398,1.5449,1.5513,1.56,1.5654,1.568,1.5751,1.5795,1.586,1.5925,1.5986,1.607,1.6142,1.6212,1.6287,1.632,1.6337,1.6338,1.6336,1.6346,1.6325,1.6309,1.6323,1.6323,1.6323,1.6323,1.6323,1.6323,1.5419,1.549,1.5528,1.5626,1.5677,1.5751,1.5789,1.5843,1.5895,1.5987,1.6047,1.6092,1.6159,1.6239,1.6306,1.6324,1.635,1.6347,1.6369,1.6348,1.6348,1.6347,1.6333,1.6352,1.6352,1.6386,1.6386,1.6386]},{"header":{"parameterUnit":"m.s-1","parameterCategory":1,"la1":30.2991,"la2":30.254,"lo1":-89.0895,"lo2":-89.0444,"dy":0.0017,"dx":0.0017,"nx":28,"ny":28,"refTime":"2025-07-27T21:00:00:Z","depth":0,"parameterNumber":3,"parameterNumberName":"V-component_of_WINDS"},"data":[0,0,0,0,0,0,0,0,0,0,0,0,0,0,0,0,0,0,0,0,0,0,0,0,0,0,0,0,0,0,0,0,0,0,0,0,0,0,0,0,0,0,0,0,0,0,0,0,0,0,0,0,0,0,0,0,0,0,3.0383,3.0383,0,3.0329,3.0328,3.0327,3.0289,3.0289,3.0289,3.0288,3.0227,3.0225,3.0224,0,0,0,0,0,0,0,0,0,0,0,0,0,3.045,3.0449,3.0383,3.0383,3.0382,3.0329,3.0328,3.0327,3.0289,3.0289,3.0289,3.0288,3.0227,3.0225,3.0224,0,0,0,0,0,0,0,0,0,0,0,0,0,3.0411,3.0449,3.0383,3.0357,3.0354,3.0329,3.0328,3.0327,3.0289,3.0289,3.0288,3.0288,3.0228,3.0225,3.0223,3.0219,0,0,3.0217,3.0216,0,0,0,0,0,0,0,0,3.0413,3.0408,3.0361,3.0359,3.0355,3.0315,3.0329,3.029,3.0289,3.0314,3.0288,3.0288,3.0256,3.0252,3.0242,3.0216,3.0213,3.0217,3.0216,3.0215,3.0214,0,0,0,0,0,0,0,3.0416,3.041,3.0361,3.0361,3.0357,3.0346,3.034,3.0321,3.0288,3.0311,3.0309,3.0303,3.0254,3.0244,3.024,3.0212,3.0217,3.0215,3.0214,3.0213,3.0179,3.018,0,0,0,0,0,0,3.0423,3.0413,3.0363,3.036,3.0384,3.0345,3.0338,3.0328,3.0288,3.0281,3.0303,3.0301,3.0248,3.0243,3.0238,3.023,3.0215,3.0213,3.0212,3.0179,3.0179,3.018,0,0,0,0,0,0,3.0425,3.0419,3.0365,3.0386,3.0378,3.0344,3.0334,3.0328,3.0318,3.0282,3.0275,3.03,3.0247,3.0241,3.0224,3.0227,3.0212,3.021,3.0179,3.0179,3.018,3.0214,0,0,0,0,0,0,3.0427,3.042,3.0419,3.0386,3.0377,3.0354,3.0334,3.0327,3.0315,3.0312,3.0276,3.027,3.0247,3.0228,3.0222,3.0224,3.0208,3.0178,3.0179,3.0179,3.0212,3.0215,3.0218,0,0,0,0,0,3.043,3.043,3.0419,3.0414,3.0375,3.0355,3.0349,3.0324,3.0315,3.0313,3.029,3.0271,3.0228,3.0226,3.022,3.0221,3.0178,3.0179,3.0179,3.0211,3.0215,3.0218,0,0,0,0,0,0,3.0462,3.0425,3.0413,3.0403,3.0382,3.0348,3.0345,3.0329,3.0309,3.0307,3.0274,3.0266,3.0253,3.0235,3.0234,3.0214,3.02,3.02,3.0226,3.023,3.0233,3.0237,3.0207,0,0,0,0,0,3.0468,3.0456,3.0424,3.0417,3.0408,3.0379,3.0368,3.0351,3.0328,3.0318,3.0294,3.0271,3.0252,3.024,3.022,3.021,3.0201,3.0207,3.021,3.0213,3.0212,3.0205,3.0207,3.0182,3.0182,3.0182,0,0,3.048,3.0459,3.0452,3.0424,3.0406,3.0392,3.0371,3.0358,3.0347,3.0315,3.0299,3.028,3.0252,3.0238,3.0231,3.0223,3.0217,3.0214,3.0216,3.0214,3.0206,3.0208,3.021,3.0183,3.0183,3.0183,0,0,3.0496,3.0479,3.0472,3.0455,3.0429,3.0409,3.0408,3.0376,3.0364,3.0347,3.0323,3.0309,3.0277,3.0258,3.0244,3.0253,3.0235,3.0248,3.0263,3.0256,3.0258,3.0259,3.0262,3.0263,3.0248,3.0248,3.0248,0,3.0514,3.0494,3.047,3.0458,3.0446,3.0419,3.0411,3.0395,3.0363,3.0355,3.0347,3.0307,3.0286,3.0267,3.027,3.0259,3.0256,3.0251,3.026,3.0261,3.0262,3.0264,3.0265,3.0249,3.0249,3.0249,3.0249,0,3.0517,3.0504,3.0502,3.0474,3.0461,3.0452,3.0424,3.0414,3.0398,3.0379,3.0361,3.0336,3.0311,3.0305,3.0288,3.0284,3.028,3.0266,3.0252,3.0267,3.0268,3.0269,3.0252,3.0251,3.0251,3.025,0,0,3.055,3.0511,3.051,3.0497,3.0467,3.0456,3.0444,3.0422,3.0414,3.0393,3.0382,3.0356,3.0344,3.0328,3.0309,3.0303,3.0311,3.029,3.0289,3.0294,3.0304,3.0314,3.0316,3.0299,3.0299,3.0299,3.0307,0,3.0561,3.0541,3.0519,3.0506,3.0494,3.0468,3.0458,3.0438,3.042,3.0405,3.0384,3.0366,3.0352,3.0342,3.0335,3.0312,3.0313,3.0311,3.0287,3.0286,3.0295,3.0317,3.0327,3.0335,3.0307,3.0307,3.0307,0,3.057,3.0553,3.054,3.0511,3.0505,3.0497,3.0474,3.0461,3.0437,3.0424,3.0408,3.0388,3.0373,3.0361,3.0339,3.0339,3.0327,3.0315,3.0314,3.031,3.0297,3.0313,3.0337,3.0338,3.0308,3.0308,3.0308,0,3.0595,3.0568,3.0557,3.0547,3.0514,3.0508,3.0494,3.047,3.0458,3.0438,3.0429,3.0407,3.0395,3.0377,3.0351,3.0345,3.0332,3.0318,3.032,3.0321,3.0318,3.0318,3.034,3.0312,3.0312,3.0312,3.0312,0,3.0609,3.0601,3.0568,3.0561,3.0552,3.0526,3.0517,3.05,3.0479,3.0467,3.0443,3.0431,3.0398,3.0383,3.0362,3.0347,3.0341,3.033,3.0324,3.0331,3.0333,3.0323,3.0322,3.0312,3.0312,3.0312,3.0312,0,3.0635,3.0612,3.0598,3.0569,3.0561,3.0555,3.0529,3.052,3.0502,3.0487,3.0482,3.0451,3.0432,3.0405,3.0376,3.0362,3.035,3.0341,3.0359,3.0355,3.0359,3.0358,3.0374,3.0375,3.0347,3.0347,3.0348,0,3.0644,3.0639,3.0609,3.0601,3.0587,3.0573,3.0562,3.0536,3.0524,3.0497,3.0492,3.0471,3.0453,3.0423,3.0397,3.0375,3.0365,3.0372,3.0361,3.0369,3.0364,3.0365,3.0364,3.0374,3.0375,3.0375,3.0376,0,3.0664,3.0654,3.0639,3.0621,3.0608,3.0592,3.0574,3.0568,3.0537,3.0526,3.0507,3.0493,3.0465,3.0444,3.0419,3.0402,3.0383,3.038,3.0379,3.0386,3.0396,3.039,3.0365,3.0379,3.0379,3.0378,3.0378,3.0378,3.0682,3.0676,3.0654,3.0639,3.0623,3.0607,3.0598,3.0579,3.0564,3.054,3.0525,3.0507,3.0483,3.0447,3.0431,3.0415,3.0408,3.0407,3.0406,3.0406,3.0409,3.04,3.0411,3.041,3.041,3.041,3.041,0,3.07,3.0685,3.0671,3.0649,3.0636,3.0622,3.0602,3.0592,3.0577,3.0557,3.054,3.0518,3.0498,3.0472,3.0449,3.0442,3.0432,3.0436,3.0436,3.0433,3.0417,3.042,3.0444,3.0444,3.0444,3.0444,3.0444,3.0444,3.0708,3.0697,3.0684,3.0664,3.0649,3.0633,3.0623,3.0607,3.0591,3.0569,3.0553,3.0537,3.0513,3.0489,3.047,3.0462,3.0455,3.0461,3.0451,3.0437,3.0434,3.0431,3.0433,3.046,3.046,3.0468,3.0468,3.0468]}]]